[Iaude] MPEC F96: 2015 FG415 [a=64.30,e=0.43,i=4.7,H=6.0]

mpec at mpcdb1.cfa.harvard.edu mpec at mpcdb1.cfa.harvard.edu
Tue Mar 26 21:37:16 EDT 2019


M.P.E.C. 2019-F96                                Issued 2019 Mar. 27, 01:33 UT
 
     The Minor Planet Electronic Circulars contain information on unusual
         minor planets and routine data on comets.  They are published
    on behalf of Division F of the International Astronomical Union by the
          Minor Planet Center, Smithsonian Astrophysical Observatory,
                          Cambridge, MA 02138, U.S.A.

             Prepared using the Tamkin Foundation Computer Network

                              MPC at CFA.HARVARD.EDU
            URL https://www.minorplanetcenter.net/    ISSN 1523-6714


                                  2015 FG415
 
Observations:
     K15Ff5G*5C2015 03 17.28162 10 51 39.582+09 31 18.28         25.4 rVEF096568
     K15Ff5G  C2015 04 18.04467 10 50 36.575+09 37 07.54               VEF096304
     K15Ff5G  C2015 04 18.08969 10 50 36.488+09 37 08.02               VEF096304
     K15Ff5G  C2015 04 18.15218 10 50 36.388+09 37 08.62               VEF096304
     K15Ff5G  C2015 04 19.05869 10 50 34.976+09 37 15.80         25.2 rVEF096304
     K15Ff5G 5C2015 06 20.27447 10 50 13.460+09 37 39.90               cEF096568
     K15Ff5G 5C2015 06 21.26466 10 50 14.392+09 37 32.33               cEF096568
     K15Ff5G  C2016 03 08.21362 10 53 13.301+09 20 14.89               VEF096304
     K15Ff5G  C2016 03 09.19068 10 53 11.011+09 20 28.23               VEF096304
     K15Ff5G  C2016 03 09.23846 10 53 10.878+09 20 29.03               VEF096304
     K15Ff5G  C2019 02 02.26663 10 58 15.686+08 44 22.48               VEF096304
     K15Ff5G  C2019 02 03.31633 10 58 13.555+08 44 36.07         25.3 rVEF096304
 
Observer details:
304 Las Campanas Observatory.  Observer S. S. Sheppard.  6.5-m Magellan-Baade
    telescope + CCD.
568 Mauna Kea.  Observers S. S. Sheppard, D. J. Tholen, C. A. Trujillo.
    8.2-m reflector + CCD, 8.1-m reflector + CCD.
 
Orbital elements:
2015 FG415
Epoch 2019 Apr. 27.0 TT = JDT 2458600.5                 MPC
M 227.17170              (2000.0)            P               Q
n   0.00191153     Peri.  313.79387     +0.77319166     +0.63409656
a  64.3005925      Node     6.87376     -0.55577350     +0.68497465
e   0.4326793      Incl.    4.70088     -0.30543490     +0.35879140
P 516              H    6.0           G   0.15           U   6
Residuals in seconds of arc
150317 568  0.1-  0.1-    150419 304  0.1-  0.1-    160309 304  0.2+  0.0
150418 304  0.1+  0.2-    150620 568  0.0   0.2+    160309 304  0.1-  0.2+
150418 304  0.1-  0.1-    150621 568  0.1-  0.0     190202 304  0.0   0.0
150418 304  0.1-  0.0     160308 304  0.1+  0.3+    190203 304  0.0   0.1-

Ephemeris:
2015 FG415               a,e,i = 64.30, 0.43, 5                  q = 36.479
Date    TT    R. A. (2000) Decl.     Delta      r     Elong.  Phase     V
2019 02 25    10 57 25.3 +08 49 38  86.5428 87.5259   173.3     0.1    25.4
...
2019 03 12    10 56 49.8 +08 53 12  86.5390 87.5203   171.0     0.1    25.4
...
2019 03 20    10 56 31.2 +08 55 01  86.5646 87.5173   163.0     0.2    25.5
...
2019 03 26    10 56 17.9 +08 56 18  86.5959 87.5150   157.0     0.3    25.5
2019 03 27    10 56 15.7 +08 56 31  86.6021 87.5146   156.0     0.3    25.5
2019 03 28    10 56 13.5 +08 56 43  86.6085 87.5143   155.0     0.3    25.5
...
2019 04 03    10 56 01.0 +08 57 54  86.6529 87.5120   149.1     0.3    25.5
...
2019 04 11    10 55 45.5 +08 59 20  86.7265 87.5090   141.1     0.4    25.5
...
2019 04 26    10 55 21.4 +09 01 27  86.9026 87.5033   126.4     0.5    25.5

A. U. Tomatic                (C) Copyright 2019 MPC           M.P.E.C. 2019-F96



More information about the Iaude mailing list